Regional Weather Roundup
Issued by NWS

Home | Current Version | Previous Version | Graphics & Text | Print | Product List | Glossary Off
Versions: 1 2 3 4 5 6 7 8 9 10 11 12 13 14 15 16 17 18 19 20 21 22 23 24 25 26 27 28 29 30 31 32 33 34 35 36 37 38 39 40 41 42 43 44 45 46 47 48 49 50

733
ASUS43 KDMX 170501
RWRIA

WEATHER ROUNDUP FOR IOWA
NATIONAL WEATHER SERVICE DES MOINES IA
1100 PM CST MON JAN 16 2017

NOTE: "FAIR" INDICATES FEW OR NO CLOUDS BELOW 12,000 FEET WITH NO
SIGNIFICANT WEATHER AND/OR OBSTRUCTIONS TO VISIBILITY.

* - THESE STATIONS ARE NOT NWS STATIONS...THUS NOT UNDER NWS
QUALITY CONTROL.  THEY ALSO DO NOT REPORT WEATHER SUCH
AS PRECIPITATION OR FOG.

IAZ001>003-012>014-020>022-031>034-043>046-170600-
   NORTHWEST IOWA

CITY           SKY/WX    TMP DP  RH WIND       PRES   REMARKS
CARROLL *      CLOUDY    34  34 100 N10       29.90S FOG     WCI  26
CHEROKEE *     CLOUDY    32  32 100 NW3       29.95S FOG
DENISON *      CLOUDY    32  32 100 NW8       29.91S WCI  25
LE MARS *      CLOUDY    32  32 100 N10       29.98S FOG     WCI  24
ORANGE CITY *  CLOUDY    32  32 100 NW5       29.96R FOG     WCI  27
SHELDON *      CLOUDY    32  32 100 N9        29.95R WCI  24
SIOUX CITY     CLOUDY    32  30  92 NW13      29.98R WCI  22
SPENCER        CLOUDY    33  31  92 N10       29.94R WCI  25
STORM LAKE *   CLOUDY    32  32 100 N9        29.92S FOG     WCI  24
$$

IAZ055>058-069>071-079>083-090>094-170600-
   SOUTHWEST IOWA

CITY           SKY/WX    TMP DP  RH WIND       PRES   REMARKS
ATLANTIC *     CLOUDY    34  32  93 N8        29.92S FOG     WCI  27
AUDUBON *      CLOUDY    32  30  93 N3        29.91S
CLARINDA *     CLOUDY    34  34 100 N10       29.94S WCI  26
COUNCIL BLFS * CLOUDY    32  32 100 NW12G17   29.93S WCI  23
CRESTON *      CLOUDY    32  32 100 NW7       29.90R FOG     WCI  26
HARLAN  *      CLOUDY    32  32 100 NW13      29.96S WCI  22
LAMONI         CLOUDY    33  33 100 NW9       29.87R WCI  25
RED OAK *      CLOUDY    34  34 100 N8G14     29.93S WCI  27
SHENANDOAH *   CLOUDY    34  34 100 NW6       29.95S FOG     WCI  29
$$

IAZ047>049-059>061-072>074-084-170600-
   CENTRAL IOWA

CITY           SKY/WX    TMP DP  RH WIND       PRES   REMARKS
AMES           CLOUDY    33  33 100 NW9       29.88F FOG     WCI  25
ANKENY *       CLOUDY    32  32 100 NW7       29.89S FOG     WCI  26
BOONE *        FOG       32  32 100 NW8       29.87F VSB 1   WCI  25
CHARITON *     FOG       32  32 100 NW7       29.86S VSB 1   WCI  26
DES MOINES     FOG       33  33 100 NW7       29.88S VSB 1/4 WCI  27
GRINNELL*      FOG       33  33 100 CALM      29.85F VSB 1/2
KNOXVILLE *    FOG       34  32  93 NW6       29.84S VSB<1/4 WCI  29
MARSHALLTOWN   FOG       33  33 100 N8        29.86S VSB 1/2 WCI  26
NEWTON *       CLOUDY    34  32  93 NW6       29.85S WCI  29
PELLA *        FOG       33  33  99 NW5       29.86F VSB 3/4 WCI  29
PERRY *        CLOUDY    33  33 100 NW5       29.89F FOG     WCI  28
$$

IAZ004>006-015-016-023>025-035-036-170600-
   NORTH CENTRAL IOWA

CITY           SKY/WX    TMP DP  RH WIND       PRES   REMARKS
ALGONA *       DRIZZLE   32  32 100 N7        29.91S WCI  26
CLARION *      CLOUDY    32  32 100 N6        29.89S FOG     WCI  26
ESTHERVILLE    MIX PCPN  30  30 100 N13       29.92S FOG     WCI  20
FORT DODGE *   CLOUDY    32  30  93 CALM      29.90F
MASON CITY     CLOUDY    32  31  96 NE5       29.90S FOG     WCI  27
FOREST CITY *  CLOUDY    32  32 100 N5        29.89F FOG     WCI  27
WEBSTER CITY * FOG       32  32 100 N8        29.87S VSB 3/4 WCI  25
IOWA FALLS *   FOG       33  32  96 N3        29.89S VSB 1/2
$$

IAZ007>011-017>019-026>030-037>042-050>054-066-170600-
   NORTHEAST IOWA

CITY           SKY/WX    TMP DP  RH WIND       PRES   REMARKS
CEDAR RAPIDS   CLOUDY    34  33  96 NE5       29.84F FOG     WCI  30
CHARLES CITY * CLOUDY    34  34 100 MISG      29.88S FOG
CLINTON *      LGT RAIN  35  35 100 NE6       29.83F VSB 3/4 WCI  30
DECORAH *      FOG       32  32 100 NE6       29.87F VSB 1   WCI  26
DUBUQUE        MIX PCPN  33  33 100 N6        29.85F VSB 1/4 WCI  28
MONTICELLO *   CLOUDY    34  34 100 CALM      29.85F FOG
OELWEIN *      CLOUDY    34  32  93 NE8       29.86F FOG     WCI  27
WATERLOO       FOG       33  32  96 N3        29.86F VSB 1
$$

IAZ064-065-067-068-078-170600-
   EAST CENTRAL IOWA

CITY           SKY/WX    TMP DP  RH WIND       PRES   REMARKS
DAVENPORT      FOG       34  34 100 NE5       29.83F VSB 1/2 WCI  30
IOWA CITY      LGT RAIN  36  35  96 N6        29.86F WCI  31
MUSCATINE *    LGT RAIN  37  36  93 CALM      29.83F VSB 1/2
QUAD CITIES    MIX PCPN  37  35  92 CALM      29.81F VSB 1
$$

IAZ062-063-075>077-085>089-095>099-170600-
   SOUTHEAST IOWA

CITY           SKY/WX    TMP DP  RH WIND       PRES   REMARKS
BURLINGTON     LGT RAIN  38  38 100 CALM      29.81F VSB 3/4
FAIRFIELD *    FOG       36  36 100 NW9       29.83S VSB 1/2 WCI  29
FORT MADISON * RAIN      41  39  93 CALM      29.82F VSB 1/2
KEOKUK *       LGT RAIN  39  39 100 CALM      29.81F VSB 3/4
OSKALOOSA *    FOG       33  33  99 N3        29.85S VSB 3/4
CENTERVILLE *  CLOUDY    36  36 100 CALM      29.85S FOG
OTTUMWA        FOG       35  35 100 N7        29.84S VSB 3/4 WCI  29
WASHINGTON *   LGT RAIN  36  36 100 N9        29.83F WCI  29
$$

ABBREVIATIONS USED IN REMARKS
   TC - TEMPERATURES IN CELSIUS
  WCI - WIND CHILL INDEX
   HX - HEAT INDEX
  VSB - VISIBILITY
$$





USA.gov is the U.S. government's official web portal to all federal, state and local government web resources and services.